"Time","Value","Approval","myLocation"
"2022-03-23 20:00",2.623,"Approved","OW501"
"2022-03-23 21:00",2.624,"Approved","OW501"
"2022-03-23 22:00",2.609,"Approved","OW501"
"2022-03-23 23:00",2.607,"Approved","OW501"
"2022-03-24 00:00",2.594,"Approved","OW501"
"2022-03-24 01:00",2.585,"Approved","OW501"
"2022-03-24 02:00",2.579,"Approved","OW501"
"2022-03-24 03:00",2.574,"Approved","OW501"
"2022-03-24 04:00",2.569,"Approved","OW501"
"2022-03-24 05:00",2.565,"Approved","OW501"
"2022-03-24 06:00",2.559,"Approved","OW501"
"2022-03-24 07:00",2.555,"Approved","OW501"
"2022-03-24 08:00",2.552,"Approved","OW501"
"2022-03-24 09:00",2.548,"Approved","OW501"
"2022-03-24 10:00",2.545,"Approved","OW501"
"2022-03-24 11:00",2.541,"Approved","OW501"
"2022-03-24 12:00",2.537,"Approved","OW501"
"2022-03-24 13:00",2.534,"Approved","OW501"
"2022-03-24 14:00",2.531,"Approved","OW501"
"2022-03-24 15:00",2.542,"Approved","OW501"
"2022-03-24 16:00",2.536,"Approved","OW501"
"2022-03-24 17:00",2.532,"Approved","OW501"
"2022-03-24 18:00",2.529,"Approved","OW501"
"2022-03-24 19:00",2.526,"Approved","OW501"
"2022-03-24 20:00",2.52,"Approved","OW501"
"2022-03-24 21:00",2.514,"Approved","OW501"
"2022-03-24 22:00",2.519,"Approved","OW501"
"2022-03-24 23:00",2.514,"Approved","OW501"
"2022-03-25 00:00",2.513,"Approved","OW501"
"2022-03-25 01:00",2.507,"Approved","OW501"
"2022-03-25 02:00",2.505,"Approved","OW501"
"2022-03-25 03:00",2.503,"Approved","OW501"
"2022-03-25 04:00",2.503,"Approved","OW501"
"2022-03-25 05:00",2.501,"Approved","OW501"
"2022-03-25 06:00",2.5,"Approved","OW501"
"2022-03-25 07:00",2.5,"Approved","OW501"
"2022-03-25 08:00",2.5,"Approved","OW501"
"2022-03-25 09:00",2.5,"Approved","OW501"
"2022-03-25 10:00",2.5,"Approved","OW501"
"2022-03-25 11:00",2.501,"Approved","OW501"
"2022-03-25 12:00",2.501,"Approved","OW501"
"2022-03-25 13:00",2.501,"Approved","OW501"
"2022-03-25 14:00",2.502,"Approved","OW501"
"2022-03-25 15:00",2.508,"Approved","OW501"
"2022-03-25 16:00",2.511,"Approved","OW501"
"2022-03-25 17:00",2.521,"Approved","OW501"
"2022-03-25 18:00",2.514,"Approved","OW501"
"2022-03-25 19:00",2.522,"Approved","OW501"
"2022-03-25 20:00",2.511,"Approved","OW501"
"2022-03-25 21:00",2.517,"Approved","OW501"
"2022-03-25 22:00",2.517,"Approved","OW501"
"2022-03-25 23:00",2.515,"Approved","OW501"
"2022-03-26 00:00",2.518,"Approved","OW501"
"2022-03-26 01:00",2.513,"Approved","OW501"
"2022-03-26 02:00",2.513,"Approved","OW501"
"2022-03-26 03:00",2.513,"Approved","OW501"
"2022-03-26 04:00",2.515,"Approved","OW501"
"2022-03-26 05:00",2.516,"Approved","OW501"
"2022-03-26 06:00",2.518,"Approved","OW501"
"2022-03-26 07:00",2.519,"Approved","OW501"
"2022-03-26 08:00",2.52,"Approved","OW501"
"2022-03-26 09:00",2.521,"Approved","OW501"
"2022-03-26 10:00",2.523,"Approved","OW501"
"2022-03-26 11:00",2.524,"Approved","OW501"
"2022-03-26 12:00",2.526,"Approved","OW501"
"2022-03-26 13:00",2.528,"Approved","OW501"
"2022-03-26 14:00",2.53,"Approved","OW501"
"2022-03-26 15:00",2.534,"Approved","OW501"
"2022-03-26 16:00",2.542,"Approved","OW501"
"2022-03-26 17:00",2.54,"Approved","OW501"
"2022-03-26 18:00",2.55,"Approved","OW501"
"2022-03-26 19:00",2.547,"Approved","OW501"
"2022-03-26 20:00",2.55,"Approved","OW501"
"2022-03-26 21:00",2.547,"Approved","OW501"
"2022-03-26 22:00",2.554,"Approved","OW501"
"2022-03-26 23:00",2.557,"Approved","OW501"
"2022-03-27 00:00",2.555,"Approved","OW501"
"2022-03-27 01:00",2.557,"Approved","OW501"
"2022-03-27 02:00",2.559,"Approved","OW501"
"2022-03-27 03:00",2.561,"Approved","OW501"
"2022-03-27 04:00",2.563,"Approved","OW501"
"2022-03-27 05:00",2.566,"Approved","OW501"
"2022-03-27 06:00",2.568,"Approved","OW501"
"2022-03-27 07:00",2.57,"Approved","OW501"
"2022-03-27 08:00",2.572,"Approved","OW501"
"2022-03-27 09:00",2.573,"Approved","OW501"
"2022-03-27 10:00",2.575,"Approved","OW501"
"2022-03-27 11:00",2.577,"Approved","OW501"
"2022-03-27 12:00",2.58,"Approved","OW501"
"2022-03-27 13:00",2.582,"Approved","OW501"
"2022-03-27 14:00",2.584,"Approved","OW501"
"2022-03-27 15:00",2.587,"Approved","OW501"
"2022-03-27 16:00",2.596,"Approved","OW501"
"2022-03-27 17:00",2.606,"Approved","OW501"
"2022-03-27 18:00",2.598,"Approved","OW501"
"2022-03-27 19:00",2.6,"Approved","OW501"
"2022-03-27 20:00",2.599,"Approved","OW501"
"2022-03-27 21:00",2.608,"Approved","OW501"
"2022-03-27 22:00",2.604,"Approved","OW501"
"2022-03-27 23:00",2.613,"Approved","OW501"
"2022-03-28 00:00",2.606,"Approved","OW501"
"2022-03-28 01:00",2.608,"Approved","OW501"
"2022-03-28 02:00",2.611,"Approved","OW501"
"2022-03-28 03:00",2.613,"Approved","OW501"
"2022-03-28 04:00",2.616,"Approved","OW501"
"2022-03-28 05:00",2.62,"Approved","OW501"
"2022-03-28 06:00",2.622,"Approved","OW501"
"2022-03-28 07:00",2.625,"Approved","OW501"
"2022-03-28 08:00",2.628,"Approved","OW501"
"2022-03-28 09:00",2.631,"Approved","OW501"
"2022-03-28 10:00",2.633,"Approved","OW501"
"2022-03-28 11:00",2.636,"Approved","OW501"
"2022-03-28 12:00",2.639,"Approved","OW501"
"2022-03-28 13:00",2.641,"Approved","OW501"
"2022-03-28 14:00",2.645,"Approved","OW501"
"2022-03-28 15:00",2.648,"Approved","OW501"
"2022-03-28 16:00",2.652,"Approved","OW501"
"2022-03-28 17:00",2.654,"Approved","OW501"
"2022-03-28 18:00",2.657,"Approved","OW501"
"2022-03-28 19:00",2.657,"Approved","OW501"
"2022-03-28 20:00",2.665,"Approved","OW501"
"2022-03-28 21:00",2.667,"Approved","OW501"
"2022-03-28 22:00",2.665,"Approved","OW501"
"2022-03-28 23:00",2.67,"Approved","OW501"
"2022-03-29 00:00",2.669,"Approved","OW501"
"2022-03-29 01:00",2.672,"Approved","OW501"
"2022-03-29 02:00",2.675,"Approved","OW501"
"2022-03-29 03:00",2.678,"Approved","OW501"
"2022-03-29 04:00",2.681,"Approved","OW501"
"2022-03-29 05:00",2.684,"Approved","OW501"
"2022-03-29 06:00",2.687,"Approved","OW501"
"2022-03-29 07:00",2.689,"Approved","OW501"
"2022-03-29 08:00",2.692,"Approved","OW501"
"2022-03-29 09:00",2.694,"Approved","OW501"
"2022-03-29 10:00",2.696,"Approved","OW501"
"2022-03-29 11:00",2.698,"Approved","OW501"
"2022-03-29 12:00",2.7,"Approved","OW501"
"2022-03-29 13:00",2.702,"Approved","OW501"
"2022-03-29 14:00",2.705,"Approved","OW501"
"2022-03-29 15:00",2.717,"Approved","OW501"
"2022-03-29 16:00",2.723,"Approved","OW501"
"2022-03-29 17:00",2.724,"Approved","OW501"
"2022-03-29 18:00",2.728,"Approved","OW501"
"2022-03-29 19:00",2.728,"Approved","OW501"
"2022-03-29 20:00",2.721,"Approved","OW501"
"2022-03-29 21:00",2.729,"Approved","OW501"
"2022-03-29 22:00",2.732,"Approved","OW501"
"2022-03-29 23:00",2.727,"Approved","OW501"
"2022-03-30 00:00",2.741,"Approved","OW501"
"2022-03-30 01:00",2.732,"Approved","OW501"
"2022-03-30 02:00",2.734,"Approved","OW501"
"2022-03-30 03:00",2.736,"Approved","OW501"
"2022-03-30 04:00",2.744,"Approved","OW501"
"2022-03-30 05:00",2.745,"Approved","OW501"
"2022-03-30 06:00",2.748,"Approved","OW501"
"2022-03-30 07:00",2.75,"Approved","OW501"
"2022-03-30 08:00",2.753,"Approved","OW501"
"2022-03-30 09:00",2.755,"Approved","OW501"
"2022-03-30 10:00",2.757,"Approved","OW501"
"2022-03-30 11:00",2.76,"Approved","OW501"
"2022-03-30 12:00",2.763,"Approved","OW501"
"2022-03-30 13:00",2.765,"Approved","OW501"
"2022-03-30 14:00",2.768,"Approved","OW501"
"2022-03-30 15:00",2.779,"Approved","OW501"
"2022-03-30 16:00",2.784,"Approved","OW501"
"2022-03-30 17:00",2.793,"Approved","OW501"
"2022-03-30 18:00",2.786,"Approved","OW501"
"2022-03-30 19:00",2.796,"Approved","OW501"
"2022-03-30 20:00",2.791,"Approved","OW501"
"2022-03-30 21:00",2.799,"Approved","OW501"
"2022-03-30 22:00",2.797,"Approved","OW501"
"2022-03-30 23:00",2.805,"Approved","OW501"
"2022-03-31 00:00",2.801,"Approved","OW501"
"2022-03-31 01:00",2.798,"Approved","OW501"
"2022-03-31 02:00",2.8,"Approved","OW501"
"2022-03-31 03:00",2.802,"Approved","OW501"
"2022-03-31 04:00",2.805,"Approved","OW501"
"2022-03-31 05:00",2.807,"Approved","OW501"
"2022-03-31 06:00",2.81,"Approved","OW501"
"2022-03-31 07:00",2.812,"Approved","OW501"
"2022-03-31 08:00",2.815,"Approved","OW501"
"2022-03-31 09:00",2.817,"Approved","OW501"
"2022-03-31 10:00",2.819,"Approved","OW501"
"2022-03-31 11:00",2.821,"Approved","OW501"
"2022-03-31 12:00",2.823,"Approved","OW501"
"2022-03-31 13:00",2.825,"Approved","OW501"
"2022-03-31 14:00",2.828,"Approved","OW501"
"2022-03-31 15:00",2.831,"Approved","OW501"
"2022-03-31 16:00",2.836,"Approved","OW501"
"2022-03-31 17:00",2.836,"Approved","OW501"
"2022-03-31 18:00",2.848,"Approved","OW501"
"2022-03-31 19:00",2.843,"Approved","OW501"
"2022-03-31 20:00",2.844,"Approved","OW501"
"2022-03-31 21:00",2.847,"Approved","OW501"
"2022-03-31 22:00",2.847,"Approved","OW501"
"2022-03-31 23:00",2.852,"Approved","OW501"
"2022-04-01 00:00",2.85,"Approved","OW501"
"2022-04-01 01:00",2.851,"Approved","OW501"
"2022-04-01 02:00",2.853,"Approved","OW501"
"2022-04-01 03:00",2.855,"Approved","OW501"
"2022-04-01 04:00",2.858,"Approved","OW501"
"2022-04-01 05:00",2.86,"Approved","OW501"
"2022-04-01 06:00",2.862,"Approved","OW501"
"2022-04-01 07:00",2.864,"Approved","OW501"
"2022-04-01 08:00",2.866,"Approved","OW501"
"2022-04-01 09:00",2.867,"Approved","OW501"
"2022-04-01 10:00",2.869,"Approved","OW501"
"2022-04-01 11:00",2.87,"Approved","OW501"
"2022-04-01 12:00",2.871,"Approved","OW501"
"2022-04-01 13:00",2.873,"Approved","OW501"
"2022-04-01 14:00",2.874,"Approved","OW501"
"2022-04-01 15:00",2.878,"Approved","OW501"
"2022-04-01 16:00",2.885,"Approved","OW501"
"2022-04-01 17:00",2.89,"Approved","OW501"
"2022-04-01 18:00",2.888,"Approved","OW501"
"2022-04-01 19:00",2.886,"Approved","OW501"
"2022-04-01 20:00",2.887,"Approved","OW501"
"2022-04-01 21:00",2.888,"Approved","OW501"
"2022-04-01 22:00",2.894,"Approved","OW501"
"2022-04-01 23:00",2.894,"Approved","OW501"
"2022-04-02 00:00",2.894,"Approved","OW501"
"2022-04-02 01:00",2.894,"Approved","OW501"
"2022-04-02 02:00",2.896,"Approved","OW501"
"2022-04-02 03:00",2.897,"Approved","OW501"
"2022-04-02 04:00",2.898,"Approved","OW501"
"2022-04-02 05:00",2.901,"Approved","OW501"
"2022-04-02 06:00",2.903,"Approved","OW501"
"2022-04-02 07:00",2.904,"Approved","OW501"
"2022-04-02 08:00",2.905,"Approved","OW501"
"2022-04-02 09:00",2.906,"Approved","OW501"
"2022-04-02 10:00",2.907,"Approved","OW501"
"2022-04-02 11:00",2.908,"Approved","OW501"
"2022-04-02 12:00",2.909,"Approved","OW501"
"2022-04-02 13:00",2.91,"Approved","OW501"
"2022-04-02 14:00",2.911,"Approved","OW501"
"2022-04-02 15:00",2.912,"Approved","OW501"
"2022-04-02 16:00",2.921,"Approved","OW501"
"2022-04-02 17:00",2.923,"Approved","OW501"
"2022-04-02 18:00",2.928,"Approved","OW501"
"2022-04-02 19:00",2.922,"Approved","OW501"
"2022-04-02 20:00",2.926,"Approved","OW501"
"2022-04-02 21:00",2.935,"Approved","OW501"
"2022-04-02 22:00",2.929,"Approved","OW501"
"2022-04-02 23:00",2.927,"Approved","OW501"
"2022-04-03 00:00",2.921,"Approved","OW501"
"2022-04-03 01:00",2.92,"Approved","OW501"
"2022-04-03 02:00",2.919,"Approved","OW501"
"2022-04-03 03:00",2.917,"Approved","OW501"
"2022-04-03 04:00",2.915,"Approved","OW501"
"2022-04-03 05:00",2.912,"Approved","OW501"
"2022-04-03 06:00",2.909,"Approved","OW501"
"2022-04-03 07:00",2.905,"Approved","OW501"
"2022-04-03 08:00",2.902,"Approved","OW501"
"2022-04-03 09:00",2.898,"Approved","OW501"
"2022-04-03 10:00",2.894,"Approved","OW501"
"2022-04-03 11:00",2.889,"Approved","OW501"
"2022-04-03 12:00",2.884,"Approved","OW501"
"2022-04-03 13:00",2.88,"Approved","OW501"
"2022-04-03 14:00",2.877,"Approved","OW501"
"2022-04-03 15:00",2.887,"Approved","OW501"
"2022-04-03 16:00",2.876,"Approved","OW501"
"2022-04-03 17:00",2.875,"Approved","OW501"
"2022-04-03 18:00",2.882,"Approved","OW501"
"2022-04-03 19:00",2.87,"Approved","OW501"
"2022-04-03 20:00",2.873,"Approved","OW501"
"2022-04-03 21:00",2.872,"Approved","OW501"
"2022-04-03 22:00",2.869,"Approved","OW501"
"2022-04-03 23:00",2.866,"Approved","OW501"
"2022-04-04 00:00",2.858,"Approved","OW501"
"2022-04-04 01:00",2.855,"Approved","OW501"
"2022-04-04 02:00",2.854,"Approved","OW501"
"2022-04-04 03:00",2.852,"Approved","OW501"
"2022-04-04 04:00",2.851,"Approved","OW501"
"2022-04-04 05:00",2.849,"Approved","OW501"
"2022-04-04 06:00",2.848,"Approved","OW501"
"2022-04-04 07:00",2.848,"Approved","OW501"
"2022-04-04 08:00",2.847,"Approved","OW501"
"2022-04-04 09:00",2.845,"Approved","OW501"
"2022-04-04 10:00",2.844,"Approved","OW501"
"2022-04-04 11:00",2.844,"Approved","OW501"
"2022-04-04 12:00",2.844,"Approved","OW501"
"2022-04-04 13:00",2.844,"Approved","OW501"
"2022-04-04 14:00",2.845,"Approved","OW501"
"2022-04-04 15:00",2.855,"Approved","OW501"
"2022-04-04 16:00",2.858,"Approved","OW501"
"2022-04-04 17:00",2.867,"Approved","OW501"
"2022-04-04 18:00",2.87,"Approved","OW501"
"2022-04-04 19:00",2.866,"Approved","OW501"
"2022-04-04 20:00",2.861,"Approved","OW501"
"2022-04-04 21:00",2.865,"Approved","OW501"
"2022-04-04 22:00",2.882,"Approved","OW501"
"2022-04-04 23:00",2.871,"Approved","OW501"
"2022-04-05 00:00",2.872,"Approved","OW501"
"2022-04-05 01:00",2.869,"Approved","OW501"
"2022-04-05 02:00",2.87,"Approved","OW501"
"2022-04-05 03:00",2.872,"Approved","OW501"
"2022-04-05 04:00",2.874,"Approved","OW501"
"2022-04-05 05:00",2.876,"Approved","OW501"
"2022-04-05 06:00",2.879,"Approved","OW501"
"2022-04-05 07:00",2.881,"Approved","OW501"
"2022-04-05 08:00",2.884,"Approved","OW501"
"2022-04-05 09:00",2.887,"Approved","OW501"
"2022-04-05 10:00",2.889,"Approved","OW501"
"2022-04-05 11:00",2.892,"Approved","OW501"
"2022-04-05 12:00",2.895,"Approved","OW501"
"2022-04-05 13:00",2.898,"Approved","OW501"
"2022-04-05 14:00",2.9,"Approved","OW501"
"2022-04-05 15:00",2.904,"Approved","OW501"
"2022-04-05 16:00",2.92,"Approved","OW501"
"2022-04-05 17:00",2.926,"Approved","OW501"
"2022-04-05 18:00",2.915,"Approved","OW501"
"2022-04-05 19:00",2.919,"Approved","OW501"
"2022-04-05 20:00",2.92,"Approved","OW501"
"2022-04-05 21:00",2.924,"Approved","OW501"
"2022-04-05 22:00",2.922,"Approved","OW501"
"2022-04-05 23:00",2.922,"Approved","OW501"
"2022-04-06 00:00",2.928,"Approved","OW501"
"2022-04-06 01:00",2.925,"Approved","OW501"
"2022-04-06 02:00",2.926,"Approved","OW501"
"2022-04-06 03:00",2.927,"Approved","OW501"
"2022-04-06 04:00",2.932,"Approved","OW501"
"2022-04-06 05:00",2.931,"Approved","OW501"
"2022-04-06 06:00",2.932,"Approved","OW501"
"2022-04-06 07:00",2.933,"Approved","OW501"
"2022-04-06 08:00",2.935,"Approved","OW501"
"2022-04-06 09:00",2.936,"Approved","OW501"
"2022-04-06 10:00",2.937,"Approved","OW501"
"2022-04-06 11:00",2.938,"Approved","OW501"
"2022-04-06 12:00",2.939,"Approved","OW501"
"2022-04-06 13:00",2.94,"Approved","OW501"
"2022-04-06 14:00",2.941,"Approved","OW501"
"2022-04-06 15:00",2.953,"Approved","OW501"
"2022-04-06 16:00",2.944,"Approved","OW501"
"2022-04-06 17:00",2.944,"Approved","OW501"
"2022-04-06 18:00",2.945,"Approved","OW501"
"2022-04-06 19:00",2.948,"Approved","OW501"
"2022-04-06 20:00",2.946,"Approved","OW501"
"2022-04-06 21:00",2.948,"Approved","OW501"
"2022-04-06 22:00",2.952,"Approved","OW501"
"2022-04-06 23:00",2.952,"Approved","OW501"
"2022-04-07 00:00",2.958,"Approved","OW501"
"2022-04-07 01:00",2.953,"Approved","OW501"
"2022-04-07 02:00",2.954,"Approved","OW501"
"2022-04-07 03:00",2.954,"Approved","OW501"
"2022-04-07 04:00",2.955,"Approved","OW501"
"2022-04-07 05:00",2.956,"Approved","OW501"
"2022-04-07 06:00",2.957,"Approved","OW501"
"2022-04-07 07:00",2.958,"Approved","OW501"
"2022-04-07 08:00",2.959,"Approved","OW501"
"2022-04-07 09:00",2.959,"Approved","OW501"
"2022-04-07 10:00",2.958,"Approved","OW501"
"2022-04-07 11:00",2.956,"Approved","OW501"
"2022-04-07 12:00",2.956,"Approved","OW501"
"2022-04-07 13:00",2.956,"Approved","OW501"
"2022-04-07 14:00",2.955,"Approved","OW501"
"2022-04-07 15:00",2.963,"Approved","OW501"
"2022-04-07 16:00",2.964,"Approved","OW501"
"2022-04-07 17:00",2.963,"Approved","OW501"
"2022-04-07 18:00",2.973,"Approved","OW501"
"2022-04-07 19:00",2.965,"Approved","OW501"
"2022-04-07 20:00",2.961,"Approved","OW501"
"2022-04-07 21:00",2.977,"Approved","OW501"
"2022-04-07 22:00",2.969,"Approved","OW501"
"2022-04-07 23:00",2.969,"Approved","OW501"
"2022-04-08 00:00",2.972,"Approved","OW501"
"2022-04-08 01:00",2.962,"Approved","OW501"
"2022-04-08 02:00",2.961,"Approved","OW501"
"2022-04-08 03:00",2.96,"Approved","OW501"
"2022-04-08 04:00",2.959,"Approved","OW501"
"2022-04-08 05:00",2.958,"Approved","OW501"
"2022-04-08 06:00",2.958,"Approved","OW501"
"2022-04-08 07:00",2.958,"Approved","OW501"
"2022-04-08 08:00",2.957,"Approved","OW501"
"2022-04-08 09:00",2.956,"Approved","OW501"
"2022-04-08 10:00",2.957,"Approved","OW501"
"2022-04-08 11:00",2.959,"Approved","OW501"
"2022-04-08 12:00",2.961,"Approved","OW501"
"2022-04-08 13:00",2.963,"Approved","OW501"
"2022-04-08 14:00",2.965,"Approved","OW501"
"2022-04-08 15:00",2.975,"Approved","OW501"
"2022-04-08 16:00",2.979,"Approved","OW501"
"2022-04-08 17:00",2.985,"Approved","OW501"
"2022-04-08 18:00",2.982,"Approved","OW501"
"2022-04-08 19:00",2.978,"Approved","OW501"
"2022-04-08 20:00",2.972,"Approved","OW501"
"2022-04-08 21:00",2.976,"Approved","OW501"
"2022-04-08 22:00",2.965,"Approved","OW501"
"2022-04-08 23:00",2.965,"Approved","OW501"
"2022-04-09 00:00",2.961,"Approved","OW501"
"2022-04-09 01:00",2.947,"Approved","OW501"
"2022-04-09 02:00",2.938,"Approved","OW501"
"2022-04-09 03:00",2.931,"Approved","OW501"
"2022-04-09 04:00",2.925,"Approved","OW501"
"2022-04-09 05:00",2.918,"Approved","OW501"
"2022-04-09 06:00",2.912,"Approved","OW501"
"2022-04-09 07:00",2.907,"Approved","OW501"
"2022-04-09 08:00",2.902,"Approved","OW501"
"2022-04-09 09:00",2.898,"Approved","OW501"
"2022-04-09 10:00",2.895,"Approved","OW501"
"2022-04-09 11:00",2.892,"Approved","OW501"
"2022-04-09 12:00",2.889,"Approved","OW501"
"2022-04-09 13:00",2.887,"Approved","OW501"
"2022-04-09 14:00",2.884,"Approved","OW501"
"2022-04-09 15:00",2.882,"Approved","OW501"
"2022-04-09 16:00",2.883,"Approved","OW501"
"2022-04-09 17:00",2.881,"Approved","OW501"
"2022-04-09 18:00",2.881,"Approved","OW501"
"2022-04-09 19:00",2.877,"Approved","OW501"
"2022-04-09 20:00",2.873,"Approved","OW501"
"2022-04-09 21:00",2.871,"Approved","OW501"
"2022-04-09 22:00",2.871,"Approved","OW501"
"2022-04-09 23:00",2.866,"Approved","OW501"
"2022-04-10 00:00",2.864,"Approved","OW501"
"2022-04-10 01:00",2.861,"Approved","OW501"
"2022-04-10 02:00",2.858,"Approved","OW501"
"2022-04-10 03:00",2.856,"Approved","OW501"
"2022-04-10 04:00",2.853,"Approved","OW501"
"2022-04-10 05:00",2.851,"Approved","OW501"
"2022-04-10 06:00",2.849,"Approved","OW501"
"2022-04-10 07:00",2.846,"Approved","OW501"
"2022-04-10 08:00",2.844,"Approved","OW501"
"2022-04-10 09:00",2.842,"Approved","OW501"
"2022-04-10 10:00",2.841,"Approved","OW501"
"2022-04-10 11:00",2.839,"Approved","OW501"
"2022-04-10 12:00",2.838,"Approved","OW501"
"2022-04-10 13:00",2.837,"Approved","OW501"
"2022-04-10 14:00",2.836,"Approved","OW501"
"2022-04-10 15:00",2.844,"Approved","OW501"
"2022-04-10 16:00",2.842,"Approved","OW501"
"2022-04-10 17:00",2.85,"Approved","OW501"
"2022-04-10 18:00",2.837,"Approved","OW501"
"2022-04-10 19:00",2.834,"Approved","OW501"
"2022-04-10 20:00",2.831,"Approved","OW501"
"2022-04-10 21:00",2.83,"Approved","OW501"
"2022-04-10 22:00",2.832,"Approved","OW501"
"2022-04-10 23:00",2.833,"Approved","OW501"
"2022-04-11 00:00",2.826,"Approved","OW501"
"2022-04-11 01:00",2.825,"Approved","OW501"
"2022-04-11 02:00",2.823,"Approved","OW501"
"2022-04-11 03:00",2.822,"Approved","OW501"
"2022-04-11 04:00",2.822,"Approved","OW501"
"2022-04-11 05:00",2.821,"Approved","OW501"
"2022-04-11 06:00",2.821,"Approved","OW501"
"2022-04-11 07:00",2.82,"Approved","OW501"
"2022-04-11 08:00",2.819,"Approved","OW501"
"2022-04-11 09:00",2.818,"Approved","OW501"
"2022-04-11 10:00",2.817,"Approved","OW501"
"2022-04-11 11:00",2.817,"Approved","OW501"
"2022-04-11 12:00",2.816,"Approved","OW501"
"2022-04-11 13:00",2.816,"Approved","OW501"
"2022-04-11 14:00",2.816,"Approved","OW501"
"2022-04-11 15:00",2.819,"Approved","OW501"
"2022-04-11 16:00",2.817,"Approved","OW501"
"2022-04-11 17:00",2.818,"Approved","OW501"
"2022-04-11 18:00",2.818,"Approved","OW501"
"2022-04-11 19:00",2.82,"Approved","OW501"
"2022-04-11 20:00",2.817,"Approved","OW501"
"2022-04-11 21:00",2.814,"Approved","OW501"
"2022-04-11 22:00",2.814,"Approved","OW501"
"2022-04-11 23:00",2.814,"Approved","OW501"
"2022-04-12 00:00",2.815,"Approved","OW501"
"2022-04-12 01:00",2.815,"Approved","OW501"
"2022-04-12 02:00",2.816,"Approved","OW501"
"2022-04-12 03:00",2.817,"Approved","OW501"
"2022-04-12 04:00",2.819,"Approved","OW501"
"2022-04-12 05:00",2.822,"Approved","OW501"
"2022-04-12 06:00",2.824,"Approved","OW501"
"2022-04-12 07:00",2.825,"Approved","OW501"
"2022-04-12 08:00",2.829,"Approved","OW501"
"2022-04-12 09:00",2.829,"Approved","OW501"
"2022-04-12 10:00",2.831,"Approved","OW501"
"2022-04-12 11:00",2.832,"Approved","OW501"
"2022-04-12 12:00",2.833,"Approved","OW501"
"2022-04-12 13:00",2.835,"Approved","OW501"
"2022-04-12 14:00",2.836,"Approved","OW501"
"2022-04-12 15:00",2.843,"Approved","OW501"
"2022-04-12 16:00",2.849,"Approved","OW501"
"2022-04-12 17:00",2.845,"Approved","OW501"
"2022-04-12 18:00",2.844,"Approved","OW501"
"2022-04-12 19:00",2.847,"Approved","OW501"
"2022-04-12 20:00",2.845,"Approved","OW501"
"2022-04-12 21:00",2.852,"Approved","OW501"
"2022-04-12 22:00",2.848,"Approved","OW501"
"2022-04-12 23:00",2.853,"Approved","OW501"
"2022-04-13 00:00",2.85,"Approved","OW501"
"2022-04-13 01:00",2.854,"Approved","OW501"
"2022-04-13 02:00",2.85,"Approved","OW501"
"2022-04-13 03:00",2.852,"Approved","OW501"
"2022-04-13 04:00",2.858,"Approved","OW501"
"2022-04-13 05:00",2.857,"Approved","OW501"
"2022-04-13 06:00",2.858,"Approved","OW501"
"2022-04-13 07:00",2.859,"Approved","OW501"
"2022-04-13 08:00",2.86,"Approved","OW501"
"2022-04-13 09:00",2.862,"Approved","OW501"
"2022-04-13 10:00",2.864,"Approved","OW501"
"2022-04-13 11:00",2.865,"Approved","OW501"
"2022-04-13 12:00",2.866,"Approved","OW501"
"2022-04-13 13:00",2.868,"Approved","OW501"
"2022-04-13 14:00",2.87,"Approved","OW501"
"2022-04-13 15:00",2.875,"Approved","OW501"
"2022-04-13 16:00",2.883,"Approved","OW501"
"2022-04-13 17:00",2.885,"Approved","OW501"
"2022-04-13 18:00",2.887,"Approved","OW501"
"2022-04-13 19:00",2.894,"Approved","OW501"
"2022-04-13 20:00",2.886,"Approved","OW501"
"2022-04-13 21:00",2.895,"Approved","OW501"
"2022-04-13 22:00",2.888,"Approved","OW501"
"2022-04-13 23:00",2.889,"Approved","OW501"
"2022-04-14 00:00",2.893,"Approved","OW501"
"2022-04-14 01:00",2.888,"Approved","OW501"
"2022-04-14 02:00",2.889,"Approved","OW501"
"2022-04-14 03:00",2.891,"Approved","OW501"
"2022-04-14 04:00",2.893,"Approved","OW501"
"2022-04-14 05:00",2.895,"Approved","OW501"
"2022-04-14 06:00",2.897,"Approved","OW501"
"2022-04-14 07:00",2.899,"Approved","OW501"
"2022-04-14 08:00",2.901,"Approved","OW501"
"2022-04-14 09:00",2.903,"Approved","OW501"
"2022-04-14 10:00",2.904,"Approved","OW501"
"2022-04-14 11:00",2.906,"Approved","OW501"
"2022-04-14 12:00",2.908,"Approved","OW501"
"2022-04-14 13:00",2.91,"Approved","OW501"
"2022-04-14 14:00",2.912,"Approved","OW501"
"2022-04-14 15:00",2.914,"Approved","OW501"
"2022-04-14 16:00",2.929,"Approved","OW501"
"2022-04-14 17:00",2.924,"Approved","OW501"
"2022-04-14 18:00",2.92,"Approved","OW501"
"2022-04-14 19:00",2.921,"Approved","OW501"
"2022-04-14 20:00",2.923,"Approved","OW501"
"2022-04-14 21:00",2.928,"Approved","OW501"
"2022-04-14 22:00",2.937,"Approved","OW501"
"2022-04-14 23:00",2.931,"Approved","OW501"
"2022-04-15 00:00",2.929,"Approved","OW501"